STARLINK-32641, 62236

Orbit data source: Space-Track

STARLINK-32641, 62236 is a payload satellite owned by SpaceX/Seattle (US) in LEO that was launched on Thu, 05 Dec 2024 UTC via an FALCON 9 launch vehicle from the Air Force Western Test Range (AFWTR). Payload-class satellites include a variety of spacecraft equipped with specific instruments for various scientific and technological missions. These include communications satellites like Starlink; space stations such as the ISS; scientific satellites like the Hubble; Earth observation satellites from companies like Planet Labs, Umbra, and HawkEye 360; GPS; miniature CubeSats for education and research; and military/defense satellites.

Loading next visibility...
Identifier
62236, 2024-231U
Orbit
LEO
Country
Flag of USUS
Related business
Manufacturer
SpaceX/Seattle
Mission
Operational Commercial Communications
Bus & Motor
STARLINK V2M, Unknown motor
Mass
730 kg wet, ~700 kg dry
Launch date (UTC)
2024-12-05 (1 year ago)
Launch vehicle
FALCON 9
Launch site
Air Force Western Test Range (AFWTR)
Object type
Payload
Rocket body
Debris
Shape & HBR
Box + 2 Pan, 17.7 m
Radar Cross Section
33.884 m², Large (>1 m²)

Expand to show TLE details & history
Last TLE update: 1 day ago

TLE from 1 day ago
0 STARLINK-32641
1 62236U 24231U   26124.76654682  .00023847  00000-0  81462-3 0  9998
2 62236  53.1606 306.3975 0000705  92.5648 267.5434 15.30203109 80521
Epoch: 2026-05-04T18:23Z
TLE epoch observation values (Epoch: 2026-05-04T18:23:49.645Z)
Latitude
0.00003°
Longitude
167.78964°
Altitude
476.126 km
Speed
7.629 km/s
True Right ascension
20h 25m 35s
True Declination
0° 00' 00"
Sunlit
Object was in daylight at epoch
Visualization orbit readout
Latitude
Unknown
Longitude
Unknown
Altitude
Unknown
Speed
Unknown
Apparent Right ascension
Unknown
Apparent Declination
Unknown
Sunlit
N/A
Visualization observer readout
Local Sidereal Time
07:25:52
Azimuth
Unknown
Elevation
Unknown
Doppler factor
Unknown
Orbital elements
Apogee altitude
475.945 km
Perigee altitude
474.979 km
Semi-major axis
6,853.599 km
Eccentricity
0.00007
Inclination
53.1606°
RAAN
306.3975°
Arg. of periapsis
92.5648°
True anomaly
267.53533°
Mean anomaly
267.5434°
Eccentric anomaly
267.53936°
Mean motion
3.8253 °/min
Orbital period
94.11 mins
BSTAR
0.00081462
Loading maneuver chart data...
Computing Atmospheric mass density...
Loading historical data...
Loading historical data...
Loading historical data...
Loading historical data...
Loading historical data...
Loading historical data...
Loading historical data...

Documentation

Showing up to 5 results
|